Погода в Ессентукской

Россия / Ставропольский край     44°01′35″N   42°52′34″E
темп.,
°C
ветер,
м/с
пор.,
м/с
влажн.,
%
обл.,
%
осадки,
мм/ч
давл.,
гПа
погр.,
м
12 апреля, пн
пн1200:00+5зюз118749 0.0 101710
03:00+5з328868 0.0 101835
06:00+6зсз2686100 0.0 1020263
09:00+7зсз3582100 0.0 1020371
12:00+7сз3484100 0.0 1021388
15:00+7зсз2483100 0.0 1021336
18:00+7зсз2386100 0.1 1022217
21:00+6сз1291100 0.1 1023182
13 апреля, вт
вт1300:00+6сз2393100 0.1 1023193
03:00+6сз1191100 0.1 102264
06:00+6в1190100 0.0 102348
09:00+6св1193100 0.3 1023197
12:00+6зсз1194100 1.8 1022199
15:00+6сз2394100 3.1 1022208
18:00+7зсз2490100 0.1 1021219
21:00+7сз2391100 0.1 1021106
14 апреля, ср
ср1400:00+6зсз2494100 0.8 1019159
03:00+6зсз3694100 2.2 1018336
06:00+6зсз3889100 0.4 1018611
09:00+7зсз3789100 1.2 1018819
12:00+9сз4680100 0.1 1017702
15:00+8сз4783100 0.1 1017595
18:00+8з3685100 0.0 1017362
21:00+7з2286100 0.0 101726
15 апреля, чт
чт1500:00+7зюз2284100 0.0 101713
03:00+6зюз228135 0.0 101713
06:00+6юз22730 0.0 101712
09:00+12ссв21560 0.0 1016556
12:00+15св22425 0.0 10151333
15:00+17св323628 0.0 10141684
18:00+15всв2345100 0.0 1014201
21:00+13з1151100 0.0 101613
16 апреля, пт
пт1600:00+11ссв116279 0.0 101513
03:00+9ююв1169100 0.0 101611
06:00+10ююз1169100 0.1 101713
09:00+10св1273100 0.3 1018198
12:00+11всв347058 0.0 1018685
15:00+13в4566100 0.1 10171137
18:00+11вюв367899 0.3 1017583
21:00+10юв368949 0.4 1017208